Powrót do katalogu

COSMOS 2251 DEB

AktywnyLEO
NORAD 47053·DEBRIS·🇷🇺 Russia

Wystrzelony Jun 16, 1993 z Plesetsk Cosmodrome

Loading…

Następne Przeloty (najbliższe 24 godziny)

TLE

Starzejące sięSource: Space-Track

Epoka: Sep 10, 2026, 01:15 UTC

1 47053U 93036BXH 26253.05244711  .00000237  00000-0  21735-3 0  9995
2 47053  74.0628 174.6451 0378002 288.2205  84.4270 13.60246213325770

Śledź COSMOS 2251 DEB w czasie rzeczywistym z AllMySat

Download on the App Store